Weather History for International Falls, MN

Change the Weather History Date:

Sunday, September 8, 2013

  Actual Average Record
Temperature  
Mean Temperature 59 °F 57 °F  
Max Temperature 70 °F 69 °F 92 °F (1906)
Min Temperature 47 °F 45 °F 29 °F (1956)
Degree Days  
Heating Degree Days 6 9  
Month to date heating degree days 50 61  
Since 1 July heating degree days 270 242  
Cooling Degree Days 0 1  
Month to date cooling degree days 7 8  
Year to date cooling degree days 220 189  
Growing Degree Days 8 (Base 50)    
Moisture  
Dew Point 52 °F    
Average Humidity 70    
Maximum Humidity 93    
Minimum Humidity 47    
Precipitation  
Precipitation 0.00 in 0.09 in 2.45 in (1962)
Month to date precipitation 0.04 0.80  
Year to date precipitation 25.15 17.76  
Snow  
Snow 0.00 in 0.00 in 0.00 in (2002)
Month to date snowfall 0.0 0.0  
Since 1 July snowfall 0.0 0.0  
Since 1 September snowfall 0.0 0.0  
Snow Depth 0.00 in    
Sea Level Pressure  
Sea Level Pressure 30.07 in    
Wind  
Wind Speed 5 mph (SE)    
Max Wind Speed 14 mph    
Max Gust Speed 21 mph    
Visibility 10 miles    
Events      
T = Trace of Precipitation, MM = Missing Value Source: NWS Daily Summary

Daily Weather History Graph

Daily Weather History Graph

Search for Another Location

Airport:

Trip Planner

Search our weather history database for the weather conditions in past years. The results will help you decide how hot, cold, wet, or windy it might be!

Date:

Astronomy

Sep. 08, 2013 Rise Set
Actual Time 6:40 AM CDT 7:40 PM CDT
Civil Twilight 6:08 AM CDT 8:12 PM CDT
Nautical Twilight 5:30 AM CDT 8:50 PM CDT
Astronomical Twilight 4:49 AM CDT 9:31 PM CDT
Moon 10:19 AM CDT (9/8) 8:53 PM CDT (9/8)
Length of Visible Light 14h 03m
Length of Day
12h 59m
Waxing Crescent, 11% of the Moon is Illuminated
Sep 8
Waxing Crescent
Sep 12
First Quarter
Sep 19
Full
Sep 26
Last Quarter
Oct 4
New

Hourly Weather History & Observations

Time (CDT) Temp. Dew Point Humidity Pressure Visibility Wind Dir Wind Speed Gust Speed Precip Events Conditions
12:55 AM 59.0 °F 53.1 °F 81% 30.16 in 10.0 mi ENE 5.8 mph - N/A   Clear
1:55 AM 57.9 °F 52.0 °F 81% 30.16 in 10.0 mi East 6.9 mph - N/A   Clear
2:55 AM 57.0 °F 52.0 °F 83% 30.14 in 10.0 mi East 6.9 mph - N/A   Clear
3:55 AM 53.1 °F 50.0 °F 89% 30.15 in 10.0 mi East 4.6 mph - N/A   Clear
4:55 AM 48.0 °F 46.9 °F 96% 30.16 in 10.0 mi Calm Calm - N/A   Clear
5:55 AM 53.1 °F 51.1 °F 93% 30.14 in 10.0 mi East 5.8 mph - N/A   Clear
6:55 AM 50.0 °F 48.0 °F 93% 30.16 in 10.0 mi Calm Calm - N/A   Clear
7:55 AM 54.0 °F 52.0 °F 93% 30.15 in 10.0 mi ESE 5.8 mph - N/A   Clear
8:55 AM 55.9 °F 52.0 °F 87% 30.15 in 10.0 mi ESE 6.9 mph - N/A   Clear
9:55 AM 60.1 °F 54.0 °F 80% 30.13 in 10.0 mi SE 8.1 mph - N/A   Clear
10:55 AM 64.0 °F 52.0 °F 65% 30.14 in 10.0 mi Variable 4.6 mph - N/A   Clear
11:55 AM 66.9 °F 50.0 °F 54% 30.10 in 10.0 mi SSE 9.2 mph 18.4 mph N/A   Clear
12:55 PM 69.1 °F 50.0 °F 51% 30.06 in 10.0 mi South 9.2 mph 18.4 mph N/A   Partly Cloudy
1:55 PM 69.1 °F 48.0 °F 47% 30.05 in 10.0 mi SSE 6.9 mph - N/A   Clear
2:55 PM 69.1 °F 51.1 °F 53% 30.01 in 10.0 mi SE 6.9 mph - N/A   Clear
3:55 PM 69.1 °F 53.1 °F 57% 30.00 in 10.0 mi SE 5.8 mph - N/A   Clear
4:55 PM 66.9 °F 53.1 °F 61% 29.99 in 10.0 mi Variable 3.5 mph - N/A   Scattered Clouds
5:55 PM 64.9 °F 52.0 °F 63% 29.97 in 10.0 mi Calm Calm - N/A   Overcast
6:55 PM 64.0 °F 50.0 °F 60% 29.97 in 10.0 mi Calm Calm - N/A   Overcast
7:55 PM 62.1 °F 51.1 °F 67% 29.95 in 10.0 mi Variable 4.6 mph - N/A   Overcast
8:55 PM 59.0 °F 53.1 °F 81% 29.95 in 10.0 mi South 4.6 mph - N/A   Overcast
9:55 PM 57.9 °F 54.0 °F 87% 29.93 in 10.0 mi SE 4.6 mph - N/A   Overcast
10:55 PM 57.9 °F 55.0 °F 90% 29.91 in 10.0 mi SSE 4.6 mph - N/A   Overcast
11:55 PM 57.9 °F 55.0 °F 90% 29.91 in 10.0 mi Calm Calm - N/A   Overcast